SCP
0 0 0 0 0 0 0 0 0 0 0 0 0 0 0 0 0 0 0 0 0 0 0 0 0 0 0 0 0 0 0 0 0 0 -0 -0 -0 -0 -0 0 0 0 0
0 0 0 0 0 0 0 0 0 0 0 0 0 0 0 0 0 0 0 0 0 0 0 0 0 0 0 0 0 0 0 0 0 0 0 0 0 0 0 -0 -0 0 0
0 0 0 0 1 1 0 0 0 0 0 0 0 0 0 0 0 0 0 0 0 0 0 0 0 0 0 0 0 0 0 0 0 0 0 0 0 0 0 0 0 0 0
0 0 0 0 0 0 1 0 0 0 0 0 0 0 0 0 0 0 0 0 0 0 0 0 0 0 0 0 0 0 0 0 0 0 0 0 0 0 0 0 0 0 0
0 0 0 0 0 0 0 0 0 0 0 0 0 0 0 0 0 0 0 0 0 0 -0 0 0 0 0 0 0 0 0 0 0 0 0 0 0 0 0 0 0 0 0
0 0 0 0 0 0 0 1 0 0 0 0 0 0 0 0 0 0 0 0 0 -0 -0 0 0 0 0 0 0 0 0 0 0 0 0 0 0 0 0 0 0 0 0
0 0 0 0 0 0 0 0 1 0 0 0 0 0 0 0 0 0 0 0 0 0 0 0 0 0 0 0 0 0 0 0 0 0 0 0 0 0 0 0 0 0 0
0 0 0 0 0 0 0 0 0 0 0 0 0 0 0 0 0 0 0 0 0 0 0 0 0 0 0 0 0 0 0 0 0 0 0 0 0 0 0 0 0 0 0
0 0 0 0 0 0 0 0 0 0 0 0 0 0 0 0 0 0 0 0 0 0 0 0 0 0 0 0 0 0 0 0 0 0 0 0 0 0 0 0 0 0 0
0 0 0 0 0 0 0 0 0 0 0 0 0 0 0 0 0 0 0 0 0 0 0 0 0 0 0 0 0 0 0 0 0 0 0 0 0 0 0 0 0 0 0
0 0 0 0 0 0 0 0 0 0 0 0 0 0 0 0 0 0 0 0 0 0 0 0 0 0 0 0 0 0 0 0 0 0 0 0 0 0 0 0 0 0 0
0 0 0 0 0 0 0 0 0 0 0 0 0 0 0 1 0 0 0 0 0 0 0 0 0 0 0 0 0 0 0 0 0 0 0 0 0 0 0 0 0 0 0
0 0 0 0 0 0 0 0 0 0 0 0 0 0 0 1 0 0 0 0 0 0 0 0 0 0 0 0 0 0 0 0 0 0 0 0 0 0 0 0 0 0 0
0 0 0 0 0 0 0 0 0 0 0 0 0 0 0 0 0 0 0 0 0 0 0 0 0 0 0 0 0 0 0 0 0 0 0 0 0 0 0 0 0 0 0
0 0 0 0 0 0 0 0 0 0 0 0 0 0 0 0 1 0 0 0 0 0 0 0 0 0 0 0 0 0 0 0 0 0 0 0 0 0 0 0 0 0 0
0 0 0 0 0 0 0 0 0 0 0 0 0 0 0 0 0 0 0 0 0 0 0 0 0 0 0 0 0 0 0 0 0 0 0 0 0 0 0 0 0 0 0
0 0 0 0 0 0 0 0 0 0 0 0 0 0 0 0 0 0 0 0 0 0 0 0 0 0 0 0 0 0 0 0 0 0 0 0 0 0 0 0 0 0 0
0 0 0 0 0 0 0 0 0 0 0 0 0 0 0 0 0 0 0 0 0 0 0 0 0 0 0 0 0 0 0 0 0 0 0 0 0 0 0 0 0 0 0
0 0 0 0 0 0 0 0 0 0 0 0 0 0 0 0 0 0 0 0 0 0 0 0 0 0 0 0 0 0 0 0 0 0 0 0 0 0 0 0 0 0 0
0 0 0 0 0 0 0 0 0 0 0 0 0 0 0 0 0 0 0 0 0 0 0 0 0 0 0 0 0 0 0 0 0 0 0 0 0 0 0 0 0 0 0
0 0 0 0 0 0 0 0 0 0 0 0 0 0 0 0 0 0 0 0 0 0 0 0 0 0 0 0 0 0 0 0 0 0 0 0 0 0 0 0 0 0 0
0 0 0 0 0 0 0 0 0 0 0 0 0 0 0 0 0 0 0 0 0 0 0 0 0 0 0 0 0 0 0 0 0 0 0 0 0 0 0 0 0 0 0
0 0 0 0 0 0 0 0 0 0 0 0 0 0 0 0 0 0 0 0 0 0 0 0 0 0 0 0 0 0 0 0 0 0 0 0 0 0 0 0 0 0 0
0 0 0 0 0 0 0 0 -0 0 0 0 0 0 0 0 0 0 0 0 0 0 0 0 0 0 0 0 0 0 0 0 0 0 0 0 0 0 0 0 0 0 0
0 0 0 0 0 0 0 0 0 0 -0 0 0 0 0 0 0 0 0 0 0 0 0 0 0 0 0 0 0 0 0 0 0 0 0 0 0 0 0 0 0 0 0
0 0 0 0 0 0 0 0 0 0 0 0 0 0 0 0 0 0 0 0 0 0 0 0 0 0 0 0 0 0 0 0 0 0 0 0 0 0 0 0 0 0 0
Wind_Speed_500mb
14 21 15 27 11 13 9 10 13 11 14 17 18 16 14 11 13 9 5 6 8 10 11 9 6 12 16 13 27 29 31 25 22 26 26 18 17 22 20 16 13 14 10
16 16 12 18 12 15 9 9 14 15 14 17 19 19 18 14 15 11 7 7 9 9 10 9 14 16 16 15 17 22 19 20 23 24 26 19 15 18 19 14 14 15 11
13 14 15 2 14 17 17 16 15 19 18 18 20 21 22 17 19 15 11 12 11 8 9 13 16 20 18 15 17 18 20 24 27 25 21 21 15 15 16 14 9 10 6
18 17 16 12 16 16 20 22 20 21 22 21 21 22 25 20 21 19 15 16 9 4 9 16 20 18 20 20 16 17 22 27 34 29 20 15 16 12 13 11 9 7 5
22 17 21 19 24 23 24 26 26 26 25 25 25 24 27 24 25 22 23 21 10 5 4 21 23 20 20 18 17 19 23 31 36 29 20 16 10 9 10 7 6 5 3
28 24 18 21 28 31 30 29 29 29 30 29 29 29 30 30 30 27 26 20 11 5 10 20 21 20 25 22 20 21 22 29 33 28 27 19 11 8 6 5 4 4 3
26 37 24 23 28 35 32 37 32 34 33 33 32 30 28 29 30 32 32 19 12 10 16 20 22 20 20 20 19 20 21 27 28 24 19 14 23 14 11 6 3 4 3
23 32 40 32 24 33 36 33 35 37 38 36 34 32 29 29 30 33 34 20 17 15 19 21 24 24 21 20 19 19 21 25 26 22 15 16 16 10 13 8 6 3 1
26 36 42 41 37 29 31 41 38 45 41 41 38 36 35 32 30 34 31 23 21 18 23 22 24 22 20 19 17 16 18 22 26 17 8 9 10 6 14 9 6 6 3
36 41 44 40 37 41 40 35 41 44 48 46 44 41 40 36 35 37 32 27 24 22 28 28 26 24 20 17 15 14 14 19 25 16 7 7 6 7 12 14 9 6 6
42 41 46 44 45 42 41 44 41 47 44 52 48 49 45 45 43 41 38 32 29 25 31 29 27 23 19 17 15 14 13 18 26 18 9 8 6 10 10 11 11 9 8
55 56 52 52 49 46 47 46 46 44 45 52 51 58 55 52 48 45 43 38 36 31 31 27 25 24 19 18 17 15 16 21 23 18 11 10 7 11 12 10 9 8 9
56 49 47 55 50 42 42 46 46 46 45 42 59 52 60 57 55 53 48 44 43 39 35 32 28 25 21 21 21 18 22 23 18 17 11 9 8 11 10 11 12 13 14
56 58 57 52 56 46 44 45 46 49 48 51 42 46 52 61 62 57 49 52 51 47 39 34 27 21 23 27 22 19 19 18 21 19 11 8 6 9 10 11 13 14 16
57 60 60 57 55 54 46 50 47 47 53 52 52 51 53 48 69 68 65 58 59 51 41 36 27 21 24 32 25 24 20 18 25 22 18 14 8 7 5 12 17 19 23
56 61 68 62 51 51 54 57 56 50 49 51 55 53 56 44 51 68 67 73 66 52 43 37 28 23 29 26 21 22 21 19 19 22 23 19 8 9 11 13 15 20 24
57 62 70 65 51 53 60 61 60 58 48 47 52 57 50 53 32 68 75 65 68 52 42 37 30 29 30 27 22 21 18 16 17 12 13 12 13 14 14 12 14 17 19
59 63 67 67 64 68 67 59 61 62 54 44 49 51 61 54 36 59 78 75 58 43 40 43 35 35 31 23 20 17 15 14 15 21 15 13 13 14 16 19 22 22 18
52 60 60 68 77 62 54 55 51 47 44 44 46 52 52 48 42 51 61 65 50 44 53 53 37 35 33 26 21 20 18 17 19 17 16 15 17 18 19 22 25 25 19
46 55 57 73 73 57 57 53 44 39 37 35 38 42 41 52 44 69 55 52 38 55 63 53 39 41 32 27 24 22 21 24 21 20 18 20 18 21 21 22 14 7 5
45 57 56 73 66 59 56 57 51 44 35 26 24 31 31 52 39 65 51 59 53 65 64 48 38 33 34 32 34 31 28 21 20 18 21 20 18 11 4 6 7 10 11
48 56 56 71 61 57 56 53 47 38 30 23 24 23 27 52 44 59 45 64 61 62 60 47 45 49 39 40 42 32 25 20 20 13 14 8 11 12 15 11 9 9 9
49 60 59 67 57 53 51 44 35 25 19 11 20 25 37 52 47 51 53 64 62 58 55 45 56 48 50 48 38 30 20 14 26 17 17 18 20 17 15 11 11 14 14
44 52 57 63 55 44 39 37 29 28 18 16 12 15 37 48 49 56 54 56 54 57 54 61 45 46 47 42 44 32 21 27 24 18 25 26 24 20 18 17 16 15 15
40 48 59 57 49 41 33 30 27 21 24 23 10 15 29 37 43 44 47 49 47 51 58 48 47 52 45 44 46 44 29 28 26 43 37 33 27 23 24 21 19 16 16
35 41 55 57 50 37 29 27 25 30 29 22 10 17 26 37 40 32 31 44 40 54 49 48 56 48 44 48 32 32 20 21 26 23 43 36 33 28 25 20 14 18 21
Wind_Direction_500mb
334 343 341 332 245 253 260 243 237 226 220 218 220 222 214 211 185 177 188 193 195 187 181 188 230 144 152 186 210 205 209 202 202 209 195 177 144 156 151 142 130 120 126
332 331 10 333 273 251 261 275 243 239 228 229 229 225 225 212 204 217 218 207 191 185 179 137 162 144 173 167 132 146 137 149 154 134 155 152 149 158 155 134 118 126 121
356 312 335 350 311 275 258 254 252 242 234 230 234 230 220 222 221 221 218 191 185 187 177 158 171 182 174 166 143 143 151 129 133 135 131 126 111 144 154 156 127 141 110
349 323 315 278 248 259 270 267 260 246 244 239 237 233 226 228 227 226 222 183 181 236 208 170 177 189 165 163 153 165 137 132 128 120 117 120 99 123 136 148 147 142 131
349 313 301 284 260 253 249 259 257 253 246 243 244 242 236 238 236 223 196 187 205 239 184 166 183 184 177 162 177 151 142 140 132 125 122 135 122 148 135 146 154 158 155
338 329 303 289 275 265 261 251 252 256 249 246 245 246 243 240 231 222 203 198 211 208 156 178 187 164 173 180 159 155 149 147 150 150 149 144 182 192 205 189 177 186 182
335 317 314 291 271 266 272 268 253 244 247 246 246 246 244 240 226 219 205 209 223 210 181 183 183 184 181 173 170 167 161 156 152 147 153 180 188 203 216 188 202 142 160
321 303 299 296 283 266 267 276 259 256 246 240 241 242 244 238 233 220 203 223 223 212 190 196 188 185 179 181 179 176 171 164 159 156 160 214 199 219 209 228 199 243 169
292 288 294 301 295 272 264 258 262 251 254 246 236 237 236 236 228 211 213 224 217 211 185 203 194 185 187 189 185 184 180 170 162 155 153 224 219 236 202 231 229 247 270
308 304 303 299 290 286 277 267 255 245 247 248 238 231 234 228 219 214 225 225 214 201 194 206 209 192 194 192 184 184 179 172 167 154 177 210 231 255 229 232 251 277 302
320 318 312 309 299 292 284 279 270 259 236 244 241 233 228 227 221 218 220 220 212 204 198 206 213 207 196 189 185 180 170 167 171 166 167 207 252 291 255 245 257 274 295
326 321 312 308 306 292 290 288 279 268 259 239 236 231 228 225 222 220 217 215 211 206 199 214 210 199 200 188 180 173 165 164 177 177 170 202 246 289 257 251 262 273 288
331 328 321 323 311 302 292 289 287 278 263 254 241 234 228 228 220 222 218 210 209 206 198 196 215 215 200 188 185 169 164 175 176 148 188 210 266 293 263 262 266 278 292
353 349 342 326 317 305 306 306 298 285 272 260 249 234 226 231 225 219 221 213 210 208 203 203 210 219 197 189 189 192 189 187 169 164 190 217 259 295 277 272 277 280 289
352 351 345 337 329 317 311 310 309 299 280 261 252 231 221 227 223 216 213 225 212 209 208 206 213 213 188 196 199 212 214 195 181 176 182 187 230 302 290 245 250 262 274
343 345 347 340 324 317 316 308 302 302 293 272 249 243 231 223 230 220 209 206 211 208 208 210 204 207 201 206 214 209 198 189 183 194 208 217 216 231 254 267 275 280 287
337 340 342 345 340 331 322 309 302 297 295 275 257 238 237 224 227 219 212 211 202 198 212 212 207 202 200 213 216 200 193 186 183 177 187 195 208 222 243 270 312 315 318
331 336 340 344 335 324 323 316 300 295 292 277 261 243 228 226 216 233 219 199 209 202 204 212 205 197 202 208 195 188 183 173 165 192 194 193 195 218 243 278 300 310 321
330 335 340 339 336 331 327 317 309 298 288 280 263 252 224 216 211 241 216 204 180 213 202 209 209 211 202 199 187 163 156 167 182 192 192 203 229 253 270 283 297 298 307
335 338 336 341 338 336 338 329 317 308 296 280 265 251 226 207 199 220 216 192 205 208 212 212 200 209 208 194 167 162 180 181 194 196 206 226 248 257 272 287 308 351 54
345 340 348 344 345 343 343 330 323 314 307 278 256 257 221 197 188 227 209 206 194 199 209 210 200 198 191 167 168 178 175 182 197 203 228 244 255 261 245 156 116 99 83
347 348 349 351 347 351 343 337 325 317 304 281 245 232 209 187 190 210 206 187 196 195 190 191 211 185 183 175 178 178 177 187 193 209 239 210 160 140 130 129 120 100 73
356 358 348 353 353 358 345 352 353 341 335 315 247 213 188 184 192 198 202 198 203 202 201 205 193 181 181 186 187 172 170 179 175 143 139 137 131 128 124 117 85 70 50
3 2 357 358 356 3 355 11 19 18 16 20 171 184 181 189 192 197 208 206 206 206 206 193 188 189 188 186 184 188 181 178 162 139 126 119 118 115 109 95 86 75 55
6 6 5 2 7 6 0 15 7 22 3 358 199 187 179 190 192 198 203 208 204 205 202 209 208 195 196 190 192 197 200 163 159 158 140 127 121 113 103 91 78 57 42
12 11 10 14 12 13 13 32 16 49 42 41 110 171 166 181 186 191 191 208 205 207 204 209 197 194 198 174 166 180 189 212 207 173 150 139 132 108 99 96 70 33 16
Wind_Speed_850mb
14 21 15 27 11 13 9 10 13 11 14 17 18 16 14 11 13 9 5 6 8 10 11 9 6 12 16 13 27 29 31 25 22 26 26 18 17 22 20 16 13 14 10
16 16 12 18 12 15 9 9 14 15 14 17 19 19 18 14 15 11 7 7 9 9 10 9 14 16 16 15 17 22 19 20 23 24 26 19 15 18 19 14 14 15 11
13 14 15 2 14 17 17 16 15 19 18 18 20 21 22 17 19 15 11 12 11 8 9 13 16 20 18 15 17 18 20 24 27 25 21 21 15 15 16 14 9 10 6
18 17 16 12 16 16 20 22 20 21 22 21 21 22 25 20 21 19 15 16 9 4 9 16 20 18 20 20 16 17 22 27 34 29 20 15 16 12 13 11 9 7 5
22 17 21 19 24 23 24 26 26 26 25 25 25 24 27 24 25 22 23 21 10 5 4 21 23 20 20 18 17 19 23 31 36 29 20 16 10 9 10 7 6 5 3
28 24 18 21 28 31 30 29 29 29 30 29 29 29 30 30 30 27 26 20 11 5 10 20 21 20 25 22 20 21 22 29 33 28 27 19 11 8 6 5 4 4 3
26 37 24 23 28 35 32 37 32 34 33 33 32 30 28 29 30 32 32 19 12 10 16 20 22 20 20 20 19 20 21 27 28 24 19 14 23 14 11 6 3 4 3
23 32 40 32 24 33 36 33 35 37 38 36 34 32 29 29 30 33 34 20 17 15 19 21 24 24 21 20 19 19 21 25 26 22 15 16 16 10 13 8 6 3 1
26 36 42 41 37 29 31 41 38 45 41 41 38 36 35 32 30 34 31 23 21 18 23 22 24 22 20 19 17 16 18 22 26 17 8 9 10 6 14 9 6 6 3
36 41 44 40 37 41 40 35 41 44 48 46 44 41 40 36 35 37 32 27 24 22 28 28 26 24 20 17 15 14 14 19 25 16 7 7 6 7 12 14 9 6 6
42 41 46 44 45 42 41 44 41 47 44 52 48 49 45 45 43 41 38 32 29 25 31 29 27 23 19 17 15 14 13 18 26 18 9 8 6 10 10 11 11 9 8
55 56 52 52 49 46 47 46 46 44 45 52 51 58 55 52 48 45 43 38 36 31 31 27 25 24 19 18 17 15 16 21 23 18 11 10 7 11 12 10 9 8 9
56 49 47 55 50 42 42 46 46 46 45 42 59 52 60 57 55 53 48 44 43 39 35 32 28 25 21 21 21 18 22 23 18 17 11 9 8 11 10 11 12 13 14
56 58 57 52 56 46 44 45 46 49 48 51 42 46 52 61 62 57 49 52 51 47 39 34 27 21 23 27 22 19 19 18 21 19 11 8 6 9 10 11 13 14 16
57 60 60 57 55 54 46 50 47 47 53 52 52 51 53 48 69 68 65 58 59 51 41 36 27 21 24 32 25 24 20 18 25 22 18 14 8 7 5 12 17 19 23
56 61 68 62 51 51 54 57 56 50 49 51 55 53 56 44 51 68 67 73 66 52 43 37 28 23 29 26 21 22 21 19 19 22 23 19 8 9 11 13 15 20 24
57 62 70 65 51 53 60 61 60 58 48 47 52 57 50 53 32 68 75 65 68 52 42 37 30 29 30 27 22 21 18 16 17 12 13 12 13 14 14 12 14 17 19
59 63 67 67 64 68 67 59 61 62 54 44 49 51 61 54 36 59 78 75 58 43 40 43 35 35 31 23 20 17 15 14 15 21 15 13 13 14 16 19 22 22 18
52 60 60 68 77 62 54 55 51 47 44 44 46 52 52 48 42 51 61 65 50 44 53 53 37 35 33 26 21 20 18 17 19 17 16 15 17 18 19 22 25 25 19
46 55 57 73 73 57 57 53 44 39 37 35 38 42 41 52 44 69 55 52 38 55 63 53 39 41 32 27 24 22 21 24 21 20 18 20 18 21 21 22 14 7 5
45 57 56 73 66 59 56 57 51 44 35 26 24 31 31 52 39 65 51 59 53 65 64 48 38 33 34 32 34 31 28 21 20 18 21 20 18 11 4 6 7 10 11
48 56 56 71 61 57 56 53 47 38 30 23 24 23 27 52 44 59 45 64 61 62 60 47 45 49 39 40 42 32 25 20 20 13 14 8 11 12 15 11 9 9 9
49 60 59 67 57 53 51 44 35 25 19 11 20 25 37 52 47 51 53 64 62 58 55 45 56 48 50 48 38 30 20 14 26 17 17 18 20 17 15 11 11 14 14
44 52 57 63 55 44 39 37 29 28 18 16 12 15 37 48 49 56 54 56 54 57 54 61 45 46 47 42 44 32 21 27 24 18 25 26 24 20 18 17 16 15 15
40 48 59 57 49 41 33 30 27 21 24 23 10 15 29 37 43 44 47 49 47 51 58 48 47 52 45 44 46 44 29 28 26 43 37 33 27 23 24 21 19 16 16
35 41 55 57 50 37 29 27 25 30 29 22 10 17 26 37 40 32 31 44 40 54 49 48 56 48 44 48 32 32 20 21 26 23 43 36 33 28 25 20 14 18 21
Wind_Direction_850mb
334 343 341 332 245 253 260 243 237 226 220 218 220 222 214 211 185 177 188 193 195 187 181 188 230 144 152 186 210 205 209 202 202 209 195 177 144 156 151 142 130 120 126
332 331 10 333 273 251 261 275 243 239 228 229 229 225 225 212 204 217 218 207 191 185 179 137 162 144 173 167 132 146 137 149 154 134 155 152 149 158 155 134 118 126 121
356 312 335 350 311 275 258 254 252 242 234 230 234 230 220 222 221 221 218 191 185 187 177 158 171 182 174 166 143 143 151 129 133 135 131 126 111 144 154 156 127 141 110
349 323 315 278 248 259 270 267 260 246 244 239 237 233 226 228 227 226 222 183 181 236 208 170 177 189 165 163 153 165 137 132 128 120 117 120 99 123 136 148 147 142 131
349 313 301 284 260 253 249 259 257 253 246 243 244 242 236 238 236 223 196 187 205 239 184 166 183 184 177 162 177 151 142 140 132 125 122 135 122 148 135 146 154 158 155
338 329 303 289 275 265 261 251 252 256 249 246 245 246 243 240 231 222 203 198 211 208 156 178 187 164 173 180 159 155 149 147 150 150 149 144 182 192 205 189 177 186 182
335 317 314 291 271 266 272 268 253 244 247 246 246 246 244 240 226 219 205 209 223 210 181 183 183 184 181 173 170 167 161 156 152 147 153 180 188 203 216 188 202 142 160
321 303 299 296 283 266 267 276 259 256 246 240 241 242 244 238 233 220 203 223 223 212 190 196 188 185 179 181 179 176 171 164 159 156 160 214 199 219 209 228 199 243 169
292 288 294 301 295 272 264 258 262 251 254 246 236 237 236 236 228 211 213 224 217 211 185 203 194 185 187 189 185 184 180 170 162 155 153 224 219 236 202 231 229 247 270
308 304 303 299 290 286 277 267 255 245 247 248 238 231 234 228 219 214 225 225 214 201 194 206 209 192 194 192 184 184 179 172 167 154 177 210 231 255 229 232 251 277 302
320 318 312 309 299 292 284 279 270 259 236 244 241 233 228 227 221 218 220 220 212 204 198 206 213 207 196 189 185 180 170 167 171 166 167 207 252 291 255 245 257 274 295
326 321 312 308 306 292 290 288 279 268 259 239 236 231 228 225 222 220 217 215 211 206 199 214 210 199 200 188 180 173 165 164 177 177 170 202 246 289 257 251 262 273 288
331 328 321 323 311 302 292 289 287 278 263 254 241 234 228 228 220 222 218 210 209 206 198 196 215 215 200 188 185 169 164 175 176 148 188 210 266 293 263 262 266 278 292
353 349 342 326 317 305 306 306 298 285 272 260 249 234 226 231 225 219 221 213 210 208 203 203 210 219 197 189 189 192 189 187 169 164 190 217 259 295 277 272 277 280 289
352 351 345 337 329 317 311 310 309 299 280 261 252 231 221 227 223 216 213 225 212 209 208 206 213 213 188 196 199 212 214 195 181 176 182 187 230 302 290 245 250 262 274
343 345 347 340 324 317 316 308 302 302 293 272 249 243 231 223 230 220 209 206 211 208 208 210 204 207 201 206 214 209 198 189 183 194 208 217 216 231 254 267 275 280 287
337 340 342 345 340 331 322 309 302 297 295 275 257 238 237 224 227 219 212 211 202 198 212 212 207 202 200 213 216 200 193 186 183 177 187 195 208 222 243 270 312 315 318
331 336 340 344 335 324 323 316 300 295 292 277 261 243 228 226 216 233 219 199 209 202 204 212 205 197 202 208 195 188 183 173 165 192 194 193 195 218 243 278 300 310 321
330 335 340 339 336 331 327 317 309 298 288 280 263 252 224 216 211 241 216 204 180 213 202 209 209 211 202 199 187 163 156 167 182 192 192 203 229 253 270 283 297 298 307
335 338 336 341 338 336 338 329 317 308 296 280 265 251 226 207 199 220 216 192 205 208 212 212 200 209 208 194 167 162 180 181 194 196 206 226 248 257 272 287 308 351 54
345 340 348 344 345 343 343 330 323 314 307 278 256 257 221 197 188 227 209 206 194 199 209 210 200 198 191 167 168 178 175 182 197 203 228 244 255 261 245 156 116 99 83
347 348 349 351 347 351 343 337 325 317 304 281 245 232 209 187 190 210 206 187 196 195 190 191 211 185 183 175 178 178 177 187 193 209 239 210 160 140 130 129 120 100 73
356 358 348 353 353 358 345 352 353 341 335 315 247 213 188 184 192 198 202 198 203 202 201 205 193 181 181 186 187 172 170 179 175 143 139 137 131 128 124 117 85 70 50
3 2 357 358 356 3 355 11 19 18 16 20 171 184 181 189 192 197 208 206 206 206 206 193 188 189 188 186 184 188 181 178 162 139 126 119 118 115 109 95 86 75 55
6 6 5 2 7 6 0 15 7 22 3 358 199 187 179 190 192 198 203 208 204 205 202 209 208 195 196 190 192 197 200 163 159 158 140 127 121 113 103 91 78 57 42
12 11 10 14 12 13 13 32 16 49 42 41 110 171 166 181 186 191 191 208 205 207 204 209 197 194 198 174 166 180 189 212 207 173 150 139 132 108 99 96 70 33 16